THORAD DELTA 1 DEB, 8594

Orbit data source: Space-Track

THORAD DELTA 1 DEB, 8594 is space debris in SSO originally from a launch on Fri, 15 Nov 1974 UTC launched from the Air Force Western Test Range (AFWTR). Debris objects in space refer to the collection of defunct objects orbiting the Earth. Examples of debris include non-operational satellites, rocket bodies, and fragments generated from explosions, collisions, or faulty payload assembly.

Loading next visibility...
Identifier
8594, 1974-089DH
Orbit
SSO
Country
Flag of USUS
Related business
Manufacturer
Unknown
Mission
Spacecraft
Bus & Motor
Unknown
Mass
Unknown
Launch date (UTC)
1974-11-15 (51 years ago)
Launch vehicle
Unknown
Launch site
Air Force Western Test Range (AFWTR)
Object type
Payload
Rocket body
Debris
Shape & HBR
Unknown shape, 0.1 m
Radar Cross Section
Small (<0.1 m²)

Expand to show TLE details & history
Last TLE update: 6 hours ago

TLE from 6 hours ago
0 THORAD DELTA 1 DEB
1  8594U 74089DH  26125.43411333  .00000055  00000-0  47430-3 0  9993
2  8594 101.7609  95.8820 0130982 154.3414 335.8101 12.73192713388106
Epoch: 2026-05-05T10:25Z
TLE epoch observation values (Epoch: 2026-05-05T10:25:07.391Z)
Latitude
49.13238°
Longitude
-89.85571°
Altitude
1,284.147 km
Speed
7.262 km/s
True Right ascension
19h 18m 56s
True Declination
48° 58' 26"
Sunlit
Object was in daylight at epoch
Visualization orbit readout
Latitude
Unknown
Longitude
Unknown
Altitude
Unknown
Speed
Unknown
Apparent Right ascension
Unknown
Apparent Declination
Unknown
Sunlit
N/A
Visualization observer readout
Local Sidereal Time
00:11:53
Azimuth
Unknown
Elevation
Unknown
Doppler factor
Unknown
Orbital elements
Apogee altitude
1,467.919 km
Perigee altitude
1,265.038 km
Semi-major axis
7,744.615 km
Eccentricity
0.0131
Inclination
101.7609°
RAAN
95.882°
Arg. of periapsis
154.3414°
True anomaly
335.18576°
Mean anomaly
335.8101°
Eccentric anomaly
335.49887°
Mean motion
3.18452 °/min
Orbital period
113.05 mins
BSTAR
0.0004743
Loading maneuver chart data...
Computing Atmospheric mass density...

Documentation

Showing up to 5 results
|